[[{"header":{"parameterUnit":"m.s-1","parameterCategory":2,"la1":30.2992,"la2":30.254,"lo1":-89.0895,"lo2":-89.0443,"dy":0.0025,"dx":0.0025,"nx":19,"ny":19,"refTime":"2026-03-08T09:00:00:Z","depth":"0","parameterNumber":2,"parameterNumberName":"U-component_of_CURRENTS"},"data":[0,0,0,-0.1991,-0.199,-0.1892,-0.1892,-0.1744,-0.1742,0,0,0,0,0,0,0,0,0,0,0,-0.2017,-0.2016,-0.1992,-0.1989,-0.1892,-0.1892,-0.1744,-0.1742,0,0,0,0,0,0,0,0,0,0,0,-0.2017,-0.2017,-0.2016,-0.1989,-0.1892,-0.1892,-0.1744,-0.1821,0,0,0,0,0,0,0,0,0,0,-0.1918,-0.1939,-0.2017,-0.2016,-0.1989,-0.1893,-0.1892,-0.1825,-0.1817,-0.1783,0,-0.1765,0,-0.1756,-0.1733,-0.1732,0,0,0,-0.1981,-0.1946,-0.1931,-0.2015,-0.1988,-0.1893,-0.1934,-0.1821,-0.1811,-0.1772,-0.1763,-0.1758,-0.1754,-0.1732,-0.1731,-0.152,-0.1519,0,0,-0.1987,-0.1987,-0.1938,-0.1925,-0.1957,-0.1937,-0.1931,-0.1815,-0.1795,-0.1763,-0.1755,-0.1751,-0.1731,-0.173,-0.1521,-0.152,0,0,0,-0.2007,-0.199,-0.1978,-0.1931,-0.1918,-0.1934,-0.1927,-0.18,-0.1799,-0.1753,-0.1749,-0.173,-0.1728,-0.1523,-0.1521,-0.151,0,0,0,-0.201,-0.2004,-0.1981,-0.1978,-0.1921,-0.1859,-0.1915,-0.1807,-0.1794,-0.175,-0.173,-0.1727,-0.1524,-0.1522,-0.1513,-0.1529,0,0,0,-0.2022,-0.2005,-0.1995,-0.1979,-0.1943,-0.1861,-0.1852,-0.1804,-0.1791,-0.1732,-0.1726,-0.1525,-0.1522,-0.1516,-0.1532,-0.1368,0,0,0,-0.2025,-0.1963,-0.1994,-0.1924,-0.1944,-0.1859,-0.1853,-0.1794,-0.1745,-0.1729,-0.1524,-0.1521,-0.1517,-0.1534,-0.1372,-0.0935,-0.0879,0,0,-0.1945,-0.1953,-0.1913,-0.1939,-0.1841,-0.1872,-0.1751,-0.1703,-0.1682,-0.1563,-0.1558,-0.1512,-0.1533,-0.1369,-0.0768,-0.0716,0,0,0,-0.1886,-0.184,-0.1821,-0.1773,-0.1754,-0.171,-0.1665,-0.1641,-0.1551,-0.1639,-0.1455,-0.1468,-0.1365,-0.1109,-0.1068,-0.0976,-0.1508,-0.1508,-0.1508,-0.1759,-0.175,-0.1673,-0.1643,-0.1609,-0.1578,-0.1544,-0.149,-0.1479,-0.1434,-0.1416,-0.1233,-0.0959,-0.0923,-0.0836,-0.1356,-0.1355,-0.1355,-0.1355,-0.1613,-0.1555,-0.1571,-0.1497,-0.15,-0.1436,-0.1402,-0.1402,-0.1276,-0.1334,-0.1232,-0.1059,-0.0877,-0.0799,-0.1354,-0.1354,-0.1354,-0.1354,-0.1354,-0.1478,-0.1459,-0.1448,-0.1421,-0.1378,-0.1385,-0.1217,-0.1267,-0.1258,-0.12,-0.0798,-0.0793,-0.0755,-0.1092,-0.1092,-0.1091,-0.1091,-0.109,-0.109,-0.1372,-0.1358,-0.1315,-0.1344,-0.1277,-0.1215,-0.1118,-0.0958,-0.0765,-0.0731,-0.0725,-0.0625,-0.1151,-0.1196,-0.1079,-0.1081,-0.1082,-0.1083,-0.1084,-0.1177,-0.1269,-0.1143,-0.1082,-0.094,-0.0723,-0.066,-0.0246,-0.0129,0.0061,-0.0001,-0.0423,-0.0363,-0.039,-0.0413,-0.0101,-0.0101,-0.0101,-0.0101,-0.1102,-0.1141,-0.0925,-0.0727,-0.0538,-0.0419,0.0129,0.0368,0.0517,0.0587,0.0442,0.0465,0.0422,0.052,0.0472,0.0463,0.099,0.0991,0.0991,-0.1027,-0.0955,-0.0743,-0.0589,-0.031,-0.0039,0.0401,0.0721,0.0986,0.1019,0.0475,0.043,0.0425,0.0349,0.0462,0.0388,0.0357,0,0]},{"header":{"parameterUnit":"m.s-1","parameterCategory":2,"la1":30.2992,"la2":30.254,"lo1":-89.0895,"lo2":-89.0443,"dy":0.0025,"dx":0.0025,"nx":19,"ny":19,"refTime":"2026-03-08T09:00:00:Z","depth":"0","parameterNumber":3,"parameterNumberName":"V-component_of_CURRENTS"},"data":[0,0,0,-0.0148,-0.0148,-0.0113,-0.0113,-0.0049,-0.0048,0,0,0,0,0,0,0,0,0,0,0,-0.0164,-0.0164,-0.0148,-0.0148,-0.0113,-0.0113,-0.0049,-0.0048,0,0,0,0,0,0,0,0,0,0,0,-0.0164,-0.0164,-0.0164,-0.0148,-0.0113,-0.0113,-0.0049,-0.0077,0,0,0,0,0,0,0,0,0,0,-0.0112,-0.0146,-0.0164,-0.0164,-0.0148,-0.0113,-0.0113,-0.0079,-0.0076,-0.0062,0,-0.0067,0,-0.0059,-0.0044,-0.0044,0,0,0,-0.0137,-0.0149,-0.0129,-0.0164,-0.0147,-0.0114,-0.0126,-0.0077,-0.0073,-0.0057,-0.0066,-0.0064,-0.0058,-0.0044,-0.0044,-0.0051,-0.0052,0,0,-0.0139,-0.0164,-0.0131,-0.0127,-0.0152,-0.0127,-0.0125,-0.0075,-0.0083,-0.0066,-0.0062,-0.0057,-0.0044,-0.0043,-0.0051,-0.0051,0,0,0,-0.0152,-0.0165,-0.0147,-0.0129,-0.0126,-0.0126,-0.0124,-0.0085,-0.0076,-0.0062,-0.0056,-0.0043,-0.0043,-0.005,-0.0051,-0.0099,0,0,0,-0.0152,-0.0173,-0.0148,-0.0163,-0.0128,-0.0111,-0.0136,-0.008,-0.0074,-0.0056,-0.0043,-0.0042,-0.005,-0.005,-0.0097,-0.0024,0,0,0,-0.0163,-0.0174,-0.0172,-0.0164,-0.0152,-0.0112,-0.01,-0.0078,-0.0071,-0.0044,-0.0042,-0.0049,-0.005,-0.0095,-0.0024,0.0193,0,0,0,-0.0185,-0.0222,-0.0173,-0.0208,-0.0153,-0.015,-0.0101,-0.0086,-0.0067,-0.0043,-0.005,-0.0051,-0.0094,-0.0023,0.019,0.0472,0.051,0,0,-0.0247,-0.023,-0.0248,-0.0204,-0.0222,-0.0154,-0.0168,-0.0114,-0.0082,-0.0061,-0.0061,-0.0098,-0.0024,0.0192,0.0402,0.0444,0,0,0,-0.0278,-0.029,-0.0287,-0.0283,-0.0255,-0.0208,-0.0171,-0.0146,-0.012,-0.0079,-0.0109,-0.0058,0.0081,0.0241,0.0272,0.0276,-0.0056,-0.0056,-0.0056,-0.0383,-0.0355,-0.0374,-0.0336,-0.0318,-0.0253,-0.0211,-0.0168,-0.0164,-0.0165,-0.0111,0.0011,0.0169,0.0199,0.0192,-0.0174,-0.0174,-0.0175,-0.0175,-0.0456,-0.0449,-0.0407,-0.0408,-0.034,-0.032,-0.0231,-0.0207,-0.0079,-0.0156,-0.0019,0.0163,0.0233,0.0213,-0.0178,-0.0177,-0.0177,-0.0177,-0.0177,-0.0499,-0.0485,-0.048,-0.0419,-0.0337,-0.0256,-0.0046,-0.0026,-0.0034,0.0036,0.0387,0.0391,0.0408,0.0155,0.0157,0.0158,0.0159,0.016,0.016,-0.0525,-0.0519,-0.0449,-0.0375,-0.0248,-0.0058,0.0151,0.0309,0.0497,0.0456,0.046,0.0461,0.0117,0.0143,0.0179,0.0175,0.0173,0.0171,0.017,-0.0476,-0.0489,-0.035,-0.023,0.0056,0.0324,0.0509,0.0909,0.1077,0.121,0.0967,0.072,0.083,0.0805,0.085,0.1069,0.1069,0.1069,0.107,-0.0408,-0.0428,-0.0202,0.0022,0.0296,0.052,0.1001,0.1336,0.1479,0.147,0.1327,0.1215,0.1179,0.1298,0.1262,0.1311,0.1642,0.1642,0.1642,-0.0274,-0.0242,-0.0035,0.009,0.04,0.0718,0.1131,0.159,0.1777,0.1648,0.1273,0.1249,0.1048,0.0991,0.1137,0.1088,0.1153,0,0]}],[{"header":{"parameterUnit":"m.s-1","parameterCategory":2,"la1":30.2992,"la2":30.254,"lo1":-89.0895,"lo2":-89.0443,"dy":0.0025,"dx":0.0025,"nx":19,"ny":19,"refTime":"2026-03-08T09:00:00:Z","depth":"2","parameterNumber":2,"parameterNumberName":"U-component_of_CURRENTS"},"data":[0,0,0,-0.1328,-0.1328,-0.1337,-0.1337,-0.1308,-0.1307,0,0,0,0,0,0,0,0,0,0,0,-0.1343,-0.1343,-0.1328,-0.1328,-0.1337,-0.1337,-0.1308,-0.1307,0,0,0,0,0,0,0,0,0,0,0,-0.1343,-0.1343,-0.1343,-0.1328,-0.1337,-0.1337,-0.1308,-0.1314,0,0,0,0,0,0,0,0,0,0,-0.1311,-0.1307,-0.1343,-0.1343,-0.1328,-0.1337,-0.1337,-0.1314,-0.1313,-0.1289,0,-0.1301,0,-0.129,-0.1304,-0.1304,0,0,0,-0.1337,-0.1308,-0.1326,-0.1343,-0.1328,-0.1337,-0.1335,-0.1314,-0.1313,-0.1288,-0.13,-0.1299,-0.129,-0.1303,-0.1303,-0.1236,-0.1236,0,0,-0.1336,-0.1326,-0.1327,-0.1325,-0.1341,-0.1335,-0.1335,-0.1314,-0.1306,-0.13,-0.1298,-0.1289,-0.1303,-0.1303,-0.1237,-0.1236,0,0,0,-0.1329,-0.1325,-0.1344,-0.1327,-0.1324,-0.1335,-0.1336,-0.1308,-0.1319,-0.1297,-0.1289,-0.1303,-0.1302,-0.1237,-0.1237,-0.1234,0,0,0,-0.1329,-0.132,-0.1344,-0.1335,-0.1325,-0.1315,-0.133,-0.1322,-0.1318,-0.1289,-0.1303,-0.1302,-0.1237,-0.1237,-0.1235,-0.1242,0,0,0,-0.134,-0.132,-0.133,-0.1335,-0.1335,-0.1316,-0.1325,-0.1321,-0.1311,-0.1304,-0.1301,-0.1238,-0.1237,-0.1236,-0.1243,-0.1201,0,0,0,-0.1319,-0.1317,-0.1329,-0.1319,-0.1335,-0.1328,-0.1326,-0.1318,-0.1313,-0.1302,-0.1237,-0.1237,-0.1236,-0.1243,-0.1202,-0.1108,-0.1095,0,0,-0.1303,-0.1315,-0.1309,-0.132,-0.1316,-0.1327,-0.1299,-0.1297,-0.1289,-0.1244,-0.1243,-0.1235,-0.1243,-0.1201,-0.1064,-0.1053,0,0,0,-0.1294,-0.1292,-0.1295,-0.1293,-0.1299,-0.1298,-0.1286,-0.1275,-0.1253,-0.128,-0.122,-0.1225,-0.1199,-0.1144,-0.1135,-0.1233,-0.1233,-0.1233,-0.1233,-0.1255,-0.1265,-0.1256,-0.1268,-0.1268,-0.1266,-0.1261,-0.124,-0.1231,-0.1218,-0.1212,-0.1165,-0.1107,-0.1099,-0.1195,-0.1194,-0.1194,-0.1194,-0.1194,-0.1219,-0.1202,-0.1228,-0.1221,-0.1238,-0.1221,-0.1218,-0.1217,-0.1175,-0.1188,-0.1161,-0.1131,-0.1088,-0.1194,-0.1194,-0.1194,-0.1194,-0.1194,-0.1194,-0.1167,-0.1163,-0.1171,-0.117,-0.118,-0.1194,-0.118,-0.1187,-0.1172,-0.1159,-0.1068,-0.1067,-0.1163,-0.1132,-0.1132,-0.1132,-0.1132,-0.1131,-0.1131,-0.1104,-0.1117,-0.1093,-0.1115,-0.111,-0.1122,-0.1151,-0.1135,-0.1085,-0.1056,-0.1054,-0.1144,-0.1146,-0.1158,-0.1129,-0.1129,-0.113,-0.113,-0.113,-0.1005,-0.1026,-0.0985,-0.0974,-0.0977,-0.094,-0.1014,-0.0979,-0.0972,-0.0922,-0.098,-0.0985,-0.0971,-0.0977,-0.0984,-0.0912,-0.0912,-0.0912,-0.0912,-0.0927,-0.0942,-0.0867,-0.0832,-0.0818,-0.084,-0.0738,-0.0705,-0.0742,-0.072,-0.0728,-0.0721,-0.0734,-0.0708,-0.0721,-0.0723,-0.0582,-0.0582,-0.0581,-0.0842,-0.0842,-0.0755,-0.0751,-0.0733,-0.0705,-0.0553,-0.0393,-0.0408,-0.0569,-0.0681,-0.0888,-0.0902,-0.0913,-0.0894,-0.0906,-0.0918,0,0]},{"header":{"parameterUnit":"m.s-1","parameterCategory":2,"la1":30.2992,"la2":30.254,"lo1":-89.0895,"lo2":-89.0443,"dy":0.0025,"dx":0.0025,"nx":19,"ny":19,"refTime":"2026-03-08T09:00:00:Z","depth":"2","parameterNumber":3,"parameterNumberName":"V-component_of_CURRENTS"},"data":[0,0,0,-0.0487,-0.0486,-0.0437,-0.0436,-0.0343,-0.0342,0,0,0,0,0,0,0,0,0,0,0,-0.0498,-0.0498,-0.0487,-0.0486,-0.0437,-0.0436,-0.0343,-0.0342,0,0,0,0,0,0,0,0,0,0,0,-0.0498,-0.0498,-0.0497,-0.0486,-0.0437,-0.0436,-0.0343,-0.0386,0,0,0,0,0,0,0,0,0,0,-0.0437,-0.0466,-0.0498,-0.0497,-0.0485,-0.0437,-0.0436,-0.0388,-0.0383,-0.0359,0,-0.0353,0,-0.0351,-0.0336,-0.0336,0,0,0,-0.0477,-0.047,-0.0448,-0.0497,-0.0485,-0.0437,-0.0456,-0.0386,-0.038,-0.0353,-0.0352,-0.0348,-0.0349,-0.0336,-0.0335,-0.0253,-0.0253,0,0,-0.048,-0.0495,-0.0452,-0.0444,-0.0473,-0.0458,-0.0455,-0.0382,-0.0381,-0.0351,-0.0346,-0.0348,-0.0335,-0.0334,-0.0253,-0.0253,0,0,0,-0.0493,-0.0497,-0.0478,-0.0448,-0.0444,-0.0457,-0.0453,-0.0385,-0.0375,-0.0346,-0.0346,-0.0334,-0.0333,-0.0253,-0.0253,-0.028,0,0,0,-0.0495,-0.0506,-0.0479,-0.0489,-0.0446,-0.0421,-0.0457,-0.038,-0.0372,-0.0347,-0.0334,-0.0332,-0.0253,-0.0253,-0.028,-0.0293,0,0,0,-0.05,-0.0507,-0.0499,-0.0489,-0.0472,-0.0422,-0.0409,-0.0379,-0.0373,-0.0336,-0.0332,-0.0254,-0.0253,-0.028,-0.0293,-0.0282,0,0,0,-0.052,-0.0509,-0.05,-0.0486,-0.0472,-0.0433,-0.041,-0.0379,-0.0348,-0.0334,-0.0253,-0.0253,-0.028,-0.0292,-0.0282,-0.0271,-0.0271,0,0,-0.0515,-0.0509,-0.0499,-0.0489,-0.0462,-0.0439,-0.0405,-0.0359,-0.0331,-0.0274,-0.0272,-0.028,-0.0293,-0.0282,-0.0242,-0.0243,0,0,0,-0.0503,-0.0498,-0.0486,-0.0471,-0.044,-0.0415,-0.0373,-0.035,-0.0304,-0.0312,-0.0262,-0.0268,-0.0261,-0.0254,-0.0254,-0.025,-0.0251,-0.0251,-0.0251,-0.0526,-0.0504,-0.0493,-0.0462,-0.0437,-0.0393,-0.0366,-0.0325,-0.0298,-0.0283,-0.0277,-0.027,-0.0262,-0.0262,-0.026,-0.026,-0.026,-0.026,-0.026,-0.0533,-0.0528,-0.0504,-0.0487,-0.0453,-0.0424,-0.0359,-0.0337,-0.0288,-0.0277,-0.0269,-0.0266,-0.0264,-0.0262,-0.0262,-0.0262,-0.0262,-0.0261,-0.0261,-0.0551,-0.0548,-0.054,-0.053,-0.051,-0.0463,-0.0445,-0.0385,-0.0316,-0.0304,-0.0277,-0.0276,-0.0291,-0.0296,-0.0296,-0.0296,-0.0296,-0.0297,-0.0297,-0.0581,-0.0571,-0.059,-0.0581,-0.0586,-0.0571,-0.0502,-0.046,-0.0361,-0.03,-0.0299,-0.0282,-0.028,-0.0292,-0.0297,-0.0297,-0.0297,-0.0297,-0.0297,-0.0602,-0.0616,-0.0638,-0.0656,-0.0666,-0.0645,-0.0601,-0.048,-0.042,-0.0356,-0.0287,-0.0287,-0.0274,-0.0273,-0.0283,-0.0285,-0.0285,-0.0285,-0.0285,-0.0636,-0.0639,-0.0676,-0.0703,-0.0717,-0.0674,-0.0584,-0.047,-0.0353,-0.0292,-0.0292,-0.0289,-0.0289,-0.0276,-0.0275,-0.0284,-0.0288,-0.0288,-0.0288,-0.0669,-0.0671,-0.0699,-0.0713,-0.0728,-0.0674,-0.0536,-0.0338,-0.0223,-0.0289,-0.0305,-0.0283,-0.0277,-0.0278,-0.0256,-0.0255,-0.027,0,0]}],[{"header":{"parameterUnit":"m.s-1","parameterCategory":2,"la1":30.2992,"la2":30.254,"lo1":-89.0895,"lo2":-89.0443,"dy":0.0025,"dx":0.0025,"nx":19,"ny":19,"refTime":"2026-03-08T09:00:00:Z","depth":"4","parameterNumber":2,"parameterNumberName":"U-component_of_CURRENTS"},"data":[0,0,0,-0.0782,-0.0784,-0.0838,-0.0838,-0.0873,-0.0873,0,0,0,0,0,0,0,0,0,0,0,-0.0763,-0.0763,-0.0782,-0.0784,-0.0838,-0.0838,-0.0873,-0.0873,0,0,0,0,0,0,0,0,0,0,0,-0.0762,-0.0763,-0.0764,-0.0784,-0.0838,-0.0838,-0.0873,-0.0837,0,0,0,0,0,0,0,0,0,0,-0.0787,-0.0779,-0.0763,-0.0764,-0.0784,-0.0838,-0.0838,-0.0836,-0.0839,-0.0842,0,-0.0863,0,-0.0875,-0.0876,-0.0876,0,0,0,-0.0771,-0.0776,-0.0794,-0.0764,-0.0785,-0.0838,-0.081,-0.0838,-0.0842,-0.0847,-0.0864,-0.0865,-0.0876,-0.0876,-0.0876,-0.0923,-0.0923,0,0,-0.0768,-0.0765,-0.0792,-0.0797,-0.0815,-0.0808,-0.0812,-0.0841,-0.0849,-0.0864,-0.0866,-0.0876,-0.0876,-0.0877,-0.0922,-0.0923,0,0,0,-0.0768,-0.0763,-0.0781,-0.0795,-0.0812,-0.081,-0.0814,-0.0847,-0.0855,-0.0867,-0.0877,-0.0877,-0.0877,-0.0922,-0.0922,-0.0937,0,0,0,-0.0765,-0.0765,-0.078,-0.0778,-0.0812,-0.0835,-0.082,-0.0853,-0.0857,-0.0876,-0.0877,-0.0878,-0.0922,-0.0922,-0.0936,-0.0933,0,0,0,-0.0757,-0.0763,-0.0775,-0.0778,-0.0808,-0.0835,-0.0844,-0.0854,-0.0863,-0.0876,-0.0878,-0.0922,-0.0922,-0.0936,-0.0932,-0.0882,0,0,0,-0.0744,-0.0771,-0.0776,-0.081,-0.0808,-0.0846,-0.0844,-0.0871,-0.0884,-0.0877,-0.0922,-0.0922,-0.0935,-0.0931,-0.0883,-0.0756,0,0,0,-0.0768,-0.0774,-0.0794,-0.08,-0.0839,-0.0836,-0.0871,-0.0888,-0.089,-0.0907,-0.0909,-0.0937,-0.0932,-0.0882,-0.0787,0,0,0,0,-0.0795,-0.0811,-0.0823,-0.085,-0.0872,-0.0886,-0.0903,-0.0906,-0.0924,-0.0904,-0.0942,-0.0939,-0.0907,-0.0835,-0.0925,-0.0925,-0.0925,-0.0925,-0.0925,-0.0804,-0.0824,-0.0853,-0.0879,-0.0903,-0.0924,-0.093,-0.0938,-0.0944,-0.0953,-0.0955,-0.0935,-0.0863,-0.0966,-0.0966,-0.0966,-0.0966,-0.0966,-0.0966,-0.0822,-0.0832,-0.0865,-0.0899,-0.092,-0.0948,-0.0964,-0.0966,-0.0955,-0.0973,-0.0941,-0.0864,-0.0968,-0.0968,-0.0967,-0.0967,-0.0967,-0.0967,-0.0967,-0.0808,-0.0814,-0.0846,-0.0882,-0.0916,-0.0945,-0.0931,-0.0957,-0.0958,-0.0945,-0.0826,-0.0924,-0.0914,-0.0917,-0.0916,-0.0916,-0.0916,-0.0916,-0.0916,-0.0765,-0.08,-0.0801,-0.0851,-0.0858,-0.0875,-0.0902,-0.0878,-0.0893,-0.0816,-0.0933,-0.0917,-0.0919,-0.091,-0.0912,-0.0913,-0.0913,-0.0914,-0.0914,-0.0723,-0.0732,-0.073,-0.0733,-0.0742,-0.0745,-0.0799,-0.0743,-0.0693,-0.0639,-0.0729,-0.0739,-0.0707,-0.0714,-0.0696,-0.0636,-0.0634,-0.0632,0,-0.0666,-0.068,-0.0642,-0.0617,-0.0591,-0.0649,-0.0565,-0.0566,-0.0577,-0.0556,-0.0686,-0.079,-0.0796,-0.0765,-0.0768,-0.0749,0,0,0,-0.0605,-0.0608,-0.0553,-0.055,-0.0512,-0.0493,-0.0536,-0.0494,-0.0594,-0.0518,-0.059,-0.0601,-0.08,-0.0902,-0.0877,-0.0879,-0.0862,0,0]},{"header":{"parameterUnit":"m.s-1","parameterCategory":2,"la1":30.2992,"la2":30.254,"lo1":-89.0895,"lo2":-89.0443,"dy":0.0025,"dx":0.0025,"nx":19,"ny":19,"refTime":"2026-03-08T09:00:00:Z","depth":"4","parameterNumber":3,"parameterNumberName":"V-component_of_CURRENTS"},"data":[0,0,0,-0.0387,-0.0387,-0.0378,-0.0378,-0.0316,-0.0315,0,0,0,0,0,0,0,0,0,0,0,-0.0386,-0.0386,-0.0387,-0.0387,-0.0378,-0.0378,-0.0316,-0.0315,0,0,0,0,0,0,0,0,0,0,0,-0.0386,-0.0386,-0.0386,-0.0387,-0.0378,-0.0378,-0.0316,-0.0333,0,0,0,0,0,0,0,0,0,0,-0.0348,-0.0366,-0.0386,-0.0386,-0.0387,-0.0378,-0.0378,-0.0335,-0.0332,-0.0308,0,-0.031,0,-0.0315,-0.0311,-0.031,0,0,0,-0.0379,-0.0368,-0.0359,-0.0386,-0.0387,-0.0378,-0.038,-0.0334,-0.0331,-0.0304,-0.0309,-0.0308,-0.0314,-0.031,-0.031,-0.0227,-0.0227,0,0,-0.038,-0.0389,-0.0361,-0.0357,-0.0388,-0.038,-0.038,-0.0333,-0.0334,-0.0309,-0.0306,-0.0313,-0.031,-0.0309,-0.0227,-0.0227,0,0,0,-0.0386,-0.0389,-0.0382,-0.0359,-0.0364,-0.038,-0.038,-0.0336,-0.0332,-0.0306,-0.0312,-0.0309,-0.0308,-0.0228,-0.0227,-0.0245,0,0,0,-0.0386,-0.0393,-0.0382,-0.0388,-0.0365,-0.036,-0.0384,-0.0335,-0.033,-0.0313,-0.0309,-0.0308,-0.0228,-0.0228,-0.0246,-0.0267,0,0,0,-0.0386,-0.0394,-0.0392,-0.0388,-0.0388,-0.0361,-0.0354,-0.0334,-0.0334,-0.031,-0.0308,-0.0229,-0.0228,-0.0246,-0.0267,-0.0281,0,0,0,-0.0395,-0.0389,-0.0393,-0.0386,-0.0388,-0.0362,-0.0355,-0.0339,-0.032,-0.0309,-0.0228,-0.0227,-0.0246,-0.0267,-0.0281,-0.0286,0,0,0,-0.0388,-0.0389,-0.0382,-0.0385,-0.0365,-0.0363,-0.0333,-0.0312,-0.0293,-0.024,-0.0238,-0.0246,-0.0267,-0.0281,-0.023,0,0,0,0,-0.038,-0.0377,-0.037,-0.0364,-0.0347,-0.0335,-0.0312,-0.0296,-0.026,-0.028,-0.0221,-0.0234,-0.0243,-0.0243,-0.0223,-0.0223,-0.0223,-0.0223,-0.0223,-0.0387,-0.0374,-0.0366,-0.0348,-0.0333,-0.0308,-0.0292,-0.0263,-0.0243,-0.0228,-0.023,-0.0229,-0.0226,-0.0201,-0.0201,-0.0201,-0.0201,-0.0201,-0.0201,-0.0385,-0.0384,-0.0371,-0.0362,-0.0342,-0.0321,-0.0275,-0.0262,-0.0233,-0.0216,-0.0224,-0.0238,-0.0203,-0.0202,-0.0202,-0.0202,-0.0202,-0.0202,-0.0202,-0.0395,-0.0394,-0.0395,-0.0395,-0.0388,-0.0357,-0.0354,-0.0311,-0.0262,-0.0259,-0.0263,-0.0244,-0.0265,-0.0266,-0.0267,-0.0267,-0.0267,-0.0267,-0.0267,-0.0414,-0.0411,-0.0435,-0.0438,-0.0451,-0.0452,-0.0414,-0.0394,-0.0338,-0.0289,-0.0273,-0.0252,-0.025,-0.0268,-0.0269,-0.0269,-0.0269,-0.0268,-0.0268,-0.043,-0.0448,-0.0474,-0.0498,-0.0521,-0.0515,-0.05,-0.0433,-0.0412,-0.0367,-0.03,-0.0298,-0.0298,-0.0295,-0.0315,-0.033,-0.0331,-0.0331,0,-0.0458,-0.0463,-0.0507,-0.0538,-0.0551,-0.054,-0.0506,-0.0473,-0.0392,-0.0369,-0.0402,-0.0327,-0.0324,-0.0327,-0.0324,-0.0349,0,0,0,-0.0486,-0.0491,-0.0523,-0.0542,-0.0551,-0.0499,-0.0486,-0.0456,-0.0404,-0.0389,-0.0333,-0.0333,-0.0348,-0.0276,-0.0271,-0.0268,-0.0299,0,0]}]]